Reading, PA

7:12 AM EDT on October 21, 2019 (GMT -0400)
Reading Regional-Spaatz

Weather History for KRDG - August, 2019

Change the Weather History Date:

Saturday, August 17, 2019

  Actual Average Record
Temperature  
Mean Temperature 80 °F 73 °F  
Max Temperature 88 °F 84 °F 97 °F (1997)
Min Temperature 71 °F 63 °F 43 °F (1979)
Degree Days  
Heating Degree Days 0 0  
Month to date heating degree days 0 0  
Since 1 June heating degree days 16 25  
Since 1 July heating degree days 0 1  
Cooling Degree Days 15 8  
Month to date cooling degree days 201 150  
Year to date cooling degree days 939 702  
Since 1 June cooling degree days 834 642  
Growing Degree Days 30 (Base 50)    
Moisture  
Dew Point 73 °F    
Average Humidity 80    
Maximum Humidity 100    
Minimum Humidity 59    
Precipitation  
Precipitation T in 0.11 in 5.04 in (1919)
Month to date precipitation 1.30 1.96  
Year to date precipitation 39.59 27.28  
Sea Level Pressure  
Sea Level Pressure 29.99 in    
Wind  
Wind Speed 3 mph (South)    
Max Wind Speed 10 mph    
Max Gust Speed 13 mph    
Visibility 8 miles    
Events      
T = Trace of Precipitation, MM = Missing Value Source: NWS Daily Summary

Daily Weather History Graph

Daily Weather History Graph

Search for Another Location

Airport or City:

Astronomy

Aug. 17, 2019 Rise Set
Actual Time 6:16 AM EDT 7:58 PM EDT
Civil Twilight 5:47 AM EDT 8:27 PM EDT
Nautical Twilight 5:12 AM EDT 9:02 PM EDT
Astronomical Twilight 4:34 AM EDT 9:40 PM EDT
Moon 9:25 PM EDT (8/17) 8:03 AM EDT (8/17)
Length of Visible Light 14h 40m
Length of Day
13h 42m
Waning Gibbous, 96% of the Moon is Illuminated
Aug 17
Waning Gibbous
Aug 23
Last Quarter
Aug 30
New
Sep 5
First Quarter
Sep 14
Full

Hourly Weather History & Observations

Time (EDT) Temp. Heat Index Dew Point Humidity Pressure Visibility Wind Dir Wind Speed Gust Speed Precip Events Conditions
12:45 AM 71.1 °F - 71.1 °F 100% 30.00 in 10.0 mi Calm Calm - N/A   Mostly Cloudy
12:54 AM 71.1 °F - 71.1 °F 100% 30.01 in 10.0 mi Calm Calm - N/A   Overcast
1:54 AM 73.0 °F - 73.0 °F 100% 30.01 in 10.0 mi Calm Calm - N/A   Overcast
2:33 AM 73.0 °F - 73.0 °F 100% 30.00 in 10.0 mi Calm Calm - N/A   Mostly Cloudy
2:54 AM 73.0 °F - 73.0 °F 100% 30.01 in 10.0 mi Calm Calm - N/A   Mostly Cloudy
3:18 AM 73.0 °F - 73.0 °F 100% 30.00 in 10.0 mi Calm Calm - N/A   Mostly Cloudy
3:54 AM 72.0 °F - 72.0 °F 100% 30.01 in 10.0 mi NNW 3.5 mph - N/A   Scattered Clouds
4:15 AM 72.0 °F - 72.0 °F 100% 30.00 in 10.0 mi Calm Calm - N/A   Mostly Cloudy
4:23 AM 73.0 °F - 73.0 °F 100% 30.00 in 10.0 mi Calm Calm - N/A   Mostly Cloudy
4:54 AM 73.0 °F - 73.0 °F 100% 30.00 in 10.0 mi NNW 3.5 mph - N/A   Overcast
5:08 AM 73.0 °F - 73.0 °F 100% 29.99 in 10.0 mi NW 3.5 mph - N/A   Overcast
5:22 AM 73.0 °F - 73.0 °F 100% 29.99 in 10.0 mi Calm Calm - N/A   Overcast
5:51 AM 73.4 °F - 73.4 °F 100% 29.99 in 2.5 mi Calm Calm - N/A   Overcast
5:54 AM 73.0 °F - 73.0 °F 100% 30.00 in 2.5 mi Calm Calm - N/A   Overcast
6:30 AM 73.0 °F - 73.0 °F 100% 30.00 in 2.5 mi Calm Calm - N/A   Overcast
6:54 AM 72.0 °F - 72.0 °F 100% 30.01 in 2.5 mi Calm Calm - N/A   Scattered Clouds
7:10 AM 73.0 °F - 73.0 °F 100% 30.00 in 2.0 mi Calm Calm - N/A   Mostly Cloudy
7:47 AM 73.9 °F - 73.9 °F 100% 30.00 in 2.0 mi Calm Calm - N/A   Mostly Cloudy
7:54 AM 75.0 °F - 75.0 °F 100% 30.01 in 2.0 mi Calm Calm - N/A   Mostly Cloudy
8:54 AM 77.0 °F - 75.9 °F 96% 30.02 in 2.0 mi North 3.5 mph - N/A   Mostly Cloudy
9:41 AM 78.1 °F - 75.9 °F 93% 30.00 in 10.0 mi Variable 3.5 mph - N/A   Mostly Cloudy
9:54 AM 80.1 °F 85.4 °F 75.9 °F 87% 30.01 in 10.0 mi ESE 5.8 mph - N/A   Mostly Cloudy
10:01 AM 80.1 °F 85.1 °F 75.0 °F 85% 30.01 in 10.0 mi SSE 3.5 mph - N/A   Scattered Clouds
10:54 AM 82.9 °F 88.8 °F 73.0 °F 72% 30.03 in 10.0 mi SE 5.8 mph - N/A   Scattered Clouds
11:54 AM 84.0 °F 90.2 °F 73.0 °F 69% 30.02 in 10.0 mi SE 4.6 mph - N/A   Scattered Clouds
12:54 PM 84.0 °F 90.2 °F 73.0 °F 69% 30.01 in 10.0 mi Variable 3.5 mph - N/A   Mostly Cloudy
1:54 PM 84.0 °F 91.2 °F 73.9 °F 72% 30.00 in 10.0 mi SE 5.8 mph - N/A   Scattered Clouds
2:54 PM 82.9 °F 90.8 °F 75.9 °F 79% 29.99 in 10.0 mi SSW 4.6 mph - 0.00 in   Scattered Clouds
3:54 PM 86.0 °F 95.1 °F 75.0 °F 70% 29.96 in 10.0 mi SSE 3.5 mph - N/A   Mostly Cloudy
4:54 PM 88.0 °F 95.6 °F 73.0 °F 61% 29.95 in 10.0 mi SW 9.2 mph - N/A   Scattered Clouds
5:54 PM 87.1 °F 92.8 °F 71.1 °F 59% 29.93 in 10.0 mi SSW 5.8 mph - N/A   Clear
6:54 PM 84.9 °F 90.1 °F 71.1 °F 63% 29.95 in 10.0 mi WSW 4.6 mph - N/A   Clear
7:54 PM 82.9 °F 87.5 °F 71.1 °F 67% 29.96 in 10.0 mi South 3.5 mph - N/A   Clear
8:54 PM 82.0 °F 86.3 °F 71.1 °F 69% 29.96 in 10.0 mi Calm Calm - N/A   Clear
9:54 PM 78.1 °F - 72.0 °F 81% 29.99 in 10.0 mi Calm Calm - N/A   Clear
10:54 PM 75.9 °F - 73.0 °F 91% 29.97 in 10.0 mi Calm Calm - N/A   Clear
11:54 PM 75.0 °F - 73.0 °F 94% 29.97 in 10.0 mi Calm Calm - N/A   Clear